Temp
-30 -30 -30 -31 -31 -31 -31 -32 -32 -32 -32 -32 -33 -33 -33 -34 -34 -35 -35 -36 -36 -36 -37 -37 -37 -37 -37 -37 -37 -38 -38 -39 -39 -39 -39 -39 -39 -39 -39 -39 -39 -38 -37 -38 -38 -38 -38 -38 -38 -38 -38 -38 -37 -37 -37 -36 -36 -36 -35 -35 -35 -34 -34
-31 -31 -31 -31 -31 -32 -32 -32 -32 -32 -33 -33 -33 -34 -34 -34 -35 -35 -36 -36 -37 -37 -37 -37 -37 -37 -37 -37 -38 -38 -38 -39 -39 -39 -39 -39 -39 -39 -39 -39 -39 -38 -38 -37 -38 -38 -38 -38 -38 -38 -38 -38 -38 -38 -38 -37 -37 -37 -36 -36 -36 -35 -35
-31 -31 -31 -31 -32 -32 -32 -32 -33 -33 -33 -33 -34 -34 -34 -35 -35 -36 -36 -37 -37 -37 -37 -37 -37 -37 -38 -38 -38 -38 -39 -39 -39 -39 -39 -39 -39 -39 -39 -39 -39 -39 -38 -37 -38 -38 -38 -38 -38 -38 -38 -38 -38 -38 -38 -38 -38 -38 -37 -37 -37 -36 -36
-31 -31 -32 -32 -32 -32 -33 -33 -33 -33 -33 -34 -34 -34 -35 -35 -36 -36 -37 -37 -37 -37 -37 -37 -38 -38 -38 -38 -38 -38 -39 -39 -39 -39 -39 -40 -40 -40 -40 -40 -39 -39 -39 -38 -38 -38 -38 -38 -38 -38 -38 -39 -39 -39 -39 -39 -39 -38 -38 -38 -38 -37 -37
-31 -32 -32 -32 -33 -33 -33 -33 -33 -34 -34 -34 -35 -35 -35 -36 -36 -37 -37 -37 -37 -37 -38 -38 -38 -38 -38 -38 -39 -39 -39 -39 -40 -40 -40 -40 -40 -40 -40 -40 -40 -39 -39 -38 -38 -38 -38 -38 -38 -38 -39 -39 -39 -39 -39 -39 -39 -39 -39 -38 -38 -38 -38
-32 -32 -32 -33 -33 -33 -33 -33 -34 -34 -34 -35 -35 -35 -36 -36 -37 -37 -37 -38 -38 -38 -38 -38 -38 -38 -39 -39 -39 -39 -40 -40 -40 -40 -40 -40 -40 -40 -40 -40 -39 -39 -39 -39 -38 -38 -38 -39 -39 -39 -39 -39 -39 -39 -39 -39 -39 -39 -39 -39 -39 -38 -38
-32 -32 -33 -33 -33 -33 -34 -34 -34 -34 -35 -35 -35 -36 -36 -37 -37 -37 -37 -38 -38 -38 -38 -38 -38 -39 -39 -39 -39 -39 -40 -40 -40 -40 -40 -40 -40 -40 -40 -39 -39 -39 -39 -39 -39 -39 -39 -39 -39 -39 -39 -39 -40 -40 -40 -40 -40 -40 -40 -40 -39 -39 -38
-32 -33 -33 -33 -33 -34 -34 -34 -35 -35 -35 -36 -36 -36 -37 -37 -37 -38 -38 -38 -38 -38 -38 -39 -39 -39 -39 -39 -39 -40 -40 -40 -40 -40 -40 -40 -40 -40 -39 -39 -39 -39 -39 -39 -39 -39 -39 -39 -39 -40 -40 -40 -40 -40 -40 -40 -40 -40 -40 -40 -39 -39 -38
-33 -33 -33 -34 -34 -34 -34 -34 -35 -35 -36 -36 -37 -37 -37 -38 -38 -38 -38 -38 -39 -39 -39 -39 -39 -39 -39 -40 -40 -40 -40 -40 -40 -40 -40 -40 -40 -39 -39 -39 -39 -39 -39 -39 -39 -39 -39 -40 -40 -40 -40 -41 -41 -41 -40 -40 -40 -40 -39 -39 -39 -39 -39
-33 -33 -34 -34 -34 -34 -34 -35 -35 -36 -36 -37 -37 -37 -38 -38 -38 -38 -38 -39 -39 -39 -39 -39 -39 -40 -40 -40 -40 -40 -40 -40 -40 -40 -40 -39 -39 -39 -39 -39 -39 -39 -40 -40 -40 -40 -40 -40 -40 -41 -41 -41 -41 -41 -41 -40 -40 -40 -39 -39 -39 -39 -39
-33 -34 -34 -34 -34 -34 -35 -35 -36 -36 -37 -37 -38 -38 -38 -38 -38 -38 -39 -39 -39 -39 -39 -40 -40 -40 -40 -40 -40 -40 -40 -40 -40 -40 -39 -39 -39 -39 -39 -39 -39 -40 -40 -40 -40 -40 -40 -41 -41 -42 -42 -42 -42 -41 -41 -40 -40 -40 -39 -40 -39 -39 -39
-34 -34 -34 -34 -34 -35 -35 -36 -36 -37 -37 -38 -38 -39 -39 -39 -38 -38 -39 -39 -39 -39 -40 -40 -40 -40 -40 -40 -40 -40 -40 -40 -40 -40 -40 -39 -39 -39 -39 -40 -40 -40 -40 -40 -40 -40 -41 -41 -42 -42 -42 -42 -42 -42 -41 -41 -40 -40 -40 -40 -39 -39 -39
-34 -34 -34 -35 -35 -35 -36 -36 -37 -38 -38 -39 -39 -39 -39 -39 -39 -39 -39 -39 -39 -39 -40 -40 -40 -40 -40 -40 -40 -40 -40 -40 -40 -40 -40 -39 -39 -39 -40 -40 -40 -40 -40 -40 -40 -40 -41 -41 -42 -42 -42 -42 -42 -42 -42 -41 -41 -41 -40 -40 -40 -39 -39
-34 -34 -35 -35 -35 -36 -36 -37 -38 -38 -39 -39 -39 -40 -40 -40 -39 -39 -39 -39 -39 -39 -40 -40 -40 -40 -40 -40 -40 -40 -40 -40 -40 -40 -39 -39 -39 -40 -40 -40 -40 -41 -41 -41 -41 -41 -41 -42 -42 -41 -41 -42 -42 -42 -42 -42 -41 -41 -41 -40 -40 -40 -40
-34 -35 -35 -35 -36 -36 -37 -37 -38 -39 -39 -40 -40 -40 -40 -40 -40 -40 -40 -39 -39 -39 -40 -40 -40 -40 -40 -40 -40 -40 -40 -40 -40 -39 -39 -39 -39 -40 -40 -40 -41 -41 -41 -41 -41 -41 -42 -42 -42 -41 -41 -41 -42 -42 -42 -42 -41 -41 -41 -41 -40 -40 -40
-34 -35 -35 -36 -36 -36 -37 -38 -39 -39 -40 -40 -40 -40 -40 -40 -40 -40 -40 -40 -39 -39 -40 -40 -40 -40 -40 -40 -40 -40 -40 -40 -40 -39 -39 -39 -39 -40 -40 -40 -41 -41 -41 -41 -41 -42 -42 -42 -42 -41 -41 -41 -41 -42 -42 -41 -41 -41 -41 -41 -41 -41 -40
-35 -35 -36 -36 -37 -37 -38 -38 -39 -40 -40 -40 -41 -41 -41 -41 -41 -40 -40 -40 -40 -40 -40 -40 -40 -40 -40 -40 -40 -40 -40 -40 -39 -39 -39 -39 -39 -40 -40 -40 -41 -41 -41 -41 -42 -42 -42 -42 -42 -41 -41 -41 -42 -42 -42 -41 -41 -42 -42 -41 -41 -41 -41
-35 -35 -36 -37 -37 -38 -38 -39 -40 -40 -40 -41 -41 -41 -41 -41 -41 -41 -40 -40 -40 -40 -40 -40 -40 -40 -40 -40 -40 -40 -40 -40 -40 -39 -39 -39 -39 -39 -40 -40 -41 -41 -41 -42 -42 -42 -43 -42 -42 -41 -41 -42 -42 -42 -42 -41 -41 -41 -42 -42 -41 -41 -41
-35 -36 -36 -37 -38 -38 -39 -39 -40 -40 -41 -41 -42 -42 -41 -41 -41 -41 -41 -40 -40 -40 -40 -40 -40 -40 -40 -40 -40 -40 -40 -40 -40 -40 -40 -39 -39 -39 -40 -40 -40 -40 -41 -41 -42 -42 -43 -43 -43 -42 -42 -42 -42 -42 -42 -42 -42 -42 -42 -42 -42 -42 -42
-36 -36 -37 -38 -38 -39 -39 -39 -40 -40 -41 -41 -42 -42 -42 -41 -41 -41 -41 -40 -40 -40 -40 -40 -40 -40 -40 -40 -40 -40 -40 -40 -40 -40 -40 -40 -39 -40 -40 -40 -40 -40 -41 -41 -41 -42 -42 -43 -43 -43 -42 -42 -42 -42 -42 -42 -42 -42 -42 -42 -42 -42 -42
-36 -37 -37 -38 -39 -39 -40 -40 -40 -41 -41 -42 -42 -42 -42 -42 -41 -41 -41 -40 -40 -40 -40 -40 -40 -41 -41 -40 -40 -40 -40 -40 -40 -40 -40 -40 -40 -40 -40 -40 -40 -40 -41 -41 -41 -42 -42 -43 -43 -43 -43 -43 -42 -42 -42 -42 -42 -43 -42 -42 -42 -42 -42
-37 -37 -38 -39 -39 -40 -40 -40 -40 -41 -42 -42 -42 -42 -42 -42 -41 -41 -41 -40 -40 -40 -40 -40 -41 -41 -41 -41 -41 -41 -40 -40 -40 -41 -40 -40 -40 -40 -40 -40 -40 -40 -40 -41 -41 -41 -42 -42 -43 -43 -43 -43 -42 -42 -42 -42 -42 -43 -43 -42 -42 -42 -42
-37 -38 -38 -39 -40 -40 -40 -40 -41 -41 -42 -42 -42 -42 -42 -42 -41 -41 -41 -40 -40 -40 -40 -40 -41 -41 -41 -41 -41 -41 -40 -40 -41 -41 -41 -41 -41 -40 -40 -41 -40 -40 -41 -41 -41 -42 -42 -42 -42 -43 -43 -43 -43 -42 -42 -42 -42 -43 -42 -42 -42 -42 -42
-38 -38 -39 -39 -40 -40 -41 -41 -41 -42 -42 -42 -42 -42 -42 -42 -41 -41 -41 -41 -40 -40 -40 -40 -40 -41 -41 -41 -41 -40 -40 -40 -41 -41 -41 -41 -41 -41 -41 -41 -41 -41 -41 -41 -42 -42 -42 -42 -42 -42 -43 -43 -43 -42 -42 -43 -43 -43 -42 -42 -42 -42 -42
-38 -39 -39 -40 -40 -40 -41 -41 -42 -42 -42 -42 -42 -42 -42 -42 -41 -41 -41 -41 -41 -40 -40 -40 -40 -40 -40 -40 -40 -40 -40 -41 -41 -41 -40 -41 -41 -41 -41 -41 -41 -41 -41 -42 -42 -42 -42 -42 -42 -42 -42 -43 -43 -43 -43 -43 -43 -43 -43 -42 -42 -42 -42
-39 -39 -40 -40 -40 -41 -41 -42 -42 -42 -42 -42 -42 -42 -42 -42 -41 -41 -41 -41 -41 -41 -40 -40 -40 -40 -40 -40 -40 -40 -40 -40 -40 -40 -40 -40 -40 -40 -41 -41 -41 -41 -42 -42 -42 -42 -42 -42 -42 -42 -42 -43 -43 -43 -43 -43 -43 -43 -43 -42 -42 -42 -42
-39 -40 -40 -40 -40 -41 -41 -42 -42 -42 -42 -42 -42 -42 -42 -41 -41 -41 -41 -41 -41 -41 -41 -40 -40 -40 -40 -40 -40 -40 -40 -40 -40 -40 -40 -40 -40 -40 -40 -40 -41 -41 -41 -42 -42 -42 -42 -43 -42 -42 -42 -42 -42 -43 -43 -43 -43 -43 -43 -43 -42 -42 -43
-39 -40 -40 -40 -40 -41 -41 -42 -42 -42 -42 -42 -42 -42 -42 -42 -41 -41 -41 -41 -41 -41 -41 -41 -40 -40 -40 -40 -40 -40 -40 -40 -40 -40 -40 -40 -40 -40 -40 -40 -40 -41 -41 -41 -42 -42 -42 -43 -43 -43 -43 -43 -43 -43 -43 -43 -42 -43 -43 -43 -42 -42 -43
-40 -40 -40 -40 -41 -41 -41 -42 -42 -42 -42 -42 -42 -42 -42 -42 -42 -42 -42 -42 -42 -41 -41 -40 -40 -40 -40 -40 -40 -40 -40 -40 -40 -40 -40 -41 -41 -41 -41 -41 -41 -41 -41 -41 -42 -42 -42 -42 -43 -43 -43 -43 -43 -43 -43 -43 -42 -42 -42 -42 -42 -42 -42
-40 -40 -40 -41 -41 -41 -41 -42 -42 -42 -43 -43 -43 -42 -42 -42 -42 -42 -42 -42 -42 -42 -41 -41 -41 -41 -41 -40 -40 -40 -41 -41 -41 -41 -41 -41 -41 -41 -41 -41 -41 -41 -41 -41 -42 -42 -42 -42 -43 -43 -43 -42 -43 -43 -43 -42 -42 -42 -42 -42 -42 -42 -43
-40 -40 -40 -40 -41 -41 -41 -41 -41 -42 -42 -42 -42 -42 -42 -42 -42 -41 -41 -42 -42 -42 -41 -41 -41 -41 -41 -41 -41 -41 -41 -41 -41 -41 -41 -41 -41 -41 -41 -41 -41 -41 -41 -41 -42 -42 -42 -42 -42 -43 -43 -43 -43 -43 -43 -42 -42 -42 -42 -42 -42 -42 -43
-40 -40 -41 -41 -41 -41 -41 -41 -41 -41 -42 -42 -42 -42 -42 -42 -42 -41 -41 -41 -41 -41 -41 -41 -41 -41 -41 -41 -41 -41 -41 -41 -41 -41 -41 -41 -41 -41 -41 -41 -41 -41 -41 -41 -42 -42 -42 -42 -42 -43 -43 -43 -43 -43 -43 -42 -42 -42 -42 -42 -42 -43 -43
-41 -41 -41 -41 -41 -41 -41 -41 -41 -41 -42 -42 -42 -42 -41 -41 -42 -42 -41 -41 -41 -41 -41 -41 -41 -41 -41 -41 -41 -41 -41 -41 -41 -41 -41 -41 -41 -41 -42 -42 -41 -41 -41 -41 -42 -42 -42 -42 -42 -43 -43 -43 -43 -43 -43 -43 -42 -42 -42 -42 -42 -42 -42
-41 -41 -41 -41 -41 -41 -41 -41 -41 -41 -41 -41 -41 -41 -41 -41 -41 -41 -41 -41 -41 -41 -41 -40 -40 -40 -40 -40 -40 -40 -41 -41 -41 -41 -41 -41 -41 -41 -42 -42 -41 -41 -41 -41 -42 -42 -42 -42 -42 -42 -43 -43 -43 -43 -43 -42 -42 -42 -42 -42 -42 -42 -42
-41 -41 -41 -41 -41 -41 -41 -41 -41 -41 -41 -41 -41 -41 -40 -41 -41 -41 -41 -40 -40 -40 -40 -40 -40 -40 -40 -40 -40 -40 -41 -41 -41 -41 -41 -41 -41 -41 -42 -42 -41 -41 -41 -42 -42 -42 -42 -42 -42 -43 -43 -43 -43 -43 -43 -42 -42 -42 -42 -42 -42 -42 -43
-41 -41 -41 -41 -41 -40 -41 -41 -41 -41 -41 -41 -41 -40 -40 -40 -40 -40 -40 -40 -40 -40 -40 -40 -40 -40 -40 -40 -41 -41 -41 -41 -41 -41 -41 -41 -41 -42 -42 -42 -42 -42 -42 -42 -42 -42 -42 -42 -42 -42 -43 -43 -43 -43 -43 -42 -42 -42 -42 -42 -42 -43 -43
Height
5384 5378 5373 5367 5360 5353 5347 5340 5334 5327 5320 5313 5306 5299 5292 5286 5280 5274 5270 5266 5262 5259 5255 5253 5251 5248 5245 5241 5240 5238 5236 5236 5234 5233 5233 5232 5232 5232 5230 5231 5231 5234 5243 5251 5251 5249 5248 5248 5250 5252 5253 5255 5256 5256 5257 5258 5259 5260 5262 5265 5269 5273 5276
5375 5368 5362 5356 5350 5343 5336 5330 5323 5316 5310 5303 5296 5289 5282 5275 5270 5265 5261 5257 5254 5251 5248 5246 5244 5241 5238 5234 5233 5232 5230 5229 5228 5226 5226 5225 5224 5225 5224 5223 5224 5226 5231 5240 5243 5240 5237 5237 5240 5241 5241 5243 5246 5244 5243 5245 5245 5245 5246 5250 5253 5256 5260
5365 5358 5352 5345 5339 5332 5326 5319 5313 5306 5299 5292 5285 5278 5272 5265 5260 5255 5252 5249 5247 5244 5241 5239 5237 5234 5231 5228 5227 5226 5224 5223 5222 5220 5219 5219 5218 5218 5218 5216 5216 5218 5221 5227 5232 5232 5228 5227 5229 5231 5230 5231 5234 5233 5231 5232 5233 5232 5232 5235 5237 5239 5243
5354 5348 5342 5335 5328 5322 5315 5308 5302 5295 5288 5281 5274 5268 5262 5256 5251 5246 5243 5241 5239 5236 5234 5232 5230 5227 5225 5222 5221 5220 5218 5216 5216 5214 5213 5213 5212 5211 5211 5210 5209 5211 5212 5215 5220 5222 5219 5217 5219 5221 5220 5219 5222 5221 5219 5219 5220 5220 5220 5220 5221 5222 5227
5344 5337 5331 5325 5318 5311 5305 5298 5291 5284 5277 5270 5264 5258 5252 5246 5242 5238 5234 5233 5231 5229 5227 5225 5223 5221 5219 5217 5216 5214 5213 5211 5209 5209 5208 5207 5206 5205 5204 5204 5203 5203 5203 5205 5209 5211 5209 5207 5207 5210 5210 5207 5207 5208 5207 5205 5206 5206 5205 5205 5205 5207 5210
5334 5327 5321 5314 5307 5301 5294 5287 5280 5273 5266 5260 5253 5248 5242 5237 5233 5229 5226 5224 5223 5221 5219 5218 5216 5215 5212 5211 5210 5208 5206 5205 5203 5203 5202 5201 5200 5198 5197 5197 5196 5195 5195 5196 5198 5199 5199 5197 5195 5198 5200 5197 5193 5192 5192 5191 5190 5190 5189 5188 5189 5191 5193
5325 5318 5311 5305 5298 5290 5283 5276 5269 5262 5255 5249 5243 5237 5232 5227 5223 5221 5218 5216 5215 5214 5212 5211 5209 5208 5206 5204 5203 5201 5200 5199 5197 5196 5196 5194 5193 5191 5190 5190 5189 5188 5188 5188 5188 5188 5187 5185 5184 5185 5188 5186 5180 5176 5176 5174 5171 5173 5175 5173 5172 5176 5178
5315 5309 5302 5295 5288 5280 5273 5265 5258 5250 5243 5238 5232 5226 5222 5218 5214 5212 5209 5208 5207 5206 5205 5204 5203 5201 5200 5198 5196 5195 5193 5192 5191 5190 5189 5187 5185 5184 5183 5183 5182 5180 5179 5179 5179 5178 5176 5173 5172 5173 5174 5172 5166 5161 5159 5156 5152 5155 5160 5159 5158 5163 5167
5305 5298 5292 5284 5277 5270 5262 5255 5247 5239 5232 5226 5221 5216 5211 5208 5205 5202 5201 5200 5199 5199 5198 5197 5196 5194 5193 5191 5189 5188 5187 5186 5184 5183 5182 5181 5178 5176 5176 5175 5174 5173 5172 5170 5170 5168 5165 5161 5160 5160 5159 5157 5152 5145 5142 5140 5137 5138 5143 5144 5147 5154 5156
5295 5288 5281 5274 5267 5260 5252 5244 5236 5228 5222 5215 5210 5205 5202 5199 5196 5193 5192 5191 5191 5192 5191 5190 5189 5187 5185 5184 5182 5181 5180 5178 5177 5176 5175 5173 5171 5169 5168 5167 5167 5165 5163 5161 5159 5158 5153 5148 5147 5147 5143 5140 5138 5130 5126 5126 5124 5125 5129 5129 5133 5142 5144
5285 5278 5270 5263 5257 5249 5241 5233 5225 5217 5211 5205 5199 5193 5190 5189 5188 5185 5184 5184 5184 5184 5184 5183 5181 5180 5178 5177 5176 5174 5172 5171 5170 5168 5167 5165 5163 5161 5160 5159 5159 5157 5154 5151 5149 5147 5143 5137 5135 5133 5129 5125 5123 5118 5113 5112 5111 5113 5116 5116 5117 5126 5131
5274 5267 5259 5252 5246 5238 5230 5223 5214 5206 5201 5195 5189 5183 5179 5177 5177 5177 5176 5176 5176 5176 5176 5175 5174 5173 5171 5170 5168 5167 5165 5163 5162 5160 5158 5157 5155 5153 5152 5151 5149 5147 5145 5142 5140 5138 5135 5129 5124 5121 5118 5114 5110 5106 5102 5100 5101 5102 5103 5104 5104 5111 5118
5264 5256 5248 5241 5234 5228 5220 5212 5203 5196 5190 5185 5180 5175 5170 5167 5167 5167 5167 5167 5168 5169 5168 5168 5167 5166 5165 5164 5162 5160 5159 5157 5155 5153 5151 5150 5148 5147 5145 5143 5140 5137 5134 5131 5128 5127 5125 5119 5112 5110 5109 5104 5099 5096 5094 5091 5091 5092 5091 5092 5094 5098 5105
5253 5246 5238 5230 5223 5217 5210 5202 5193 5186 5181 5176 5171 5166 5162 5159 5158 5158 5158 5158 5159 5160 5161 5160 5160 5159 5158 5157 5155 5154 5152 5150 5148 5146 5145 5144 5142 5140 5138 5135 5133 5129 5124 5120 5115 5114 5113 5109 5102 5100 5099 5096 5090 5088 5087 5084 5082 5082 5080 5081 5084 5087 5092
5243 5236 5228 5220 5212 5206 5200 5192 5183 5176 5171 5167 5163 5158 5154 5152 5151 5150 5150 5150 5151 5152 5153 5152 5152 5152 5151 5150 5149 5147 5144 5142 5141 5139 5139 5138 5136 5134 5131 5128 5126 5122 5117 5112 5107 5102 5100 5097 5093 5090 5089 5087 5083 5080 5078 5075 5074 5075 5073 5072 5074 5076 5080
5234 5226 5218 5210 5202 5195 5189 5182 5173 5166 5162 5158 5154 5150 5146 5145 5144 5142 5142 5142 5143 5144 5144 5145 5145 5144 5144 5143 5142 5139 5136 5134 5133 5132 5132 5131 5129 5126 5124 5121 5118 5114 5109 5105 5101 5095 5091 5087 5084 5081 5079 5077 5075 5073 5070 5068 5068 5068 5066 5064 5065 5066 5069
5224 5216 5207 5200 5192 5184 5179 5173 5165 5158 5154 5150 5146 5142 5139 5137 5136 5136 5135 5135 5135 5136 5137 5137 5137 5137 5137 5136 5134 5131 5129 5126 5125 5125 5125 5124 5122 5119 5117 5115 5111 5106 5102 5097 5092 5087 5083 5079 5076 5074 5071 5070 5068 5065 5063 5061 5062 5061 5058 5055 5055 5057 5061
5214 5206 5197 5189 5182 5174 5169 5165 5158 5150 5146 5142 5138 5134 5131 5130 5129 5129 5128 5127 5128 5129 5129 5130 5130 5130 5129 5128 5126 5124 5122 5119 5117 5117 5117 5116 5114 5113 5111 5108 5104 5100 5097 5092 5085 5080 5075 5071 5068 5066 5064 5063 5061 5059 5055 5054 5055 5054 5050 5047 5047 5049 5052
5204 5196 5188 5179 5172 5165 5159 5155 5150 5144 5139 5135 5131 5126 5124 5123 5123 5122 5121 5120 5121 5122 5123 5124 5124 5123 5121 5120 5119 5117 5115 5112 5110 5110 5110 5108 5106 5105 5103 5100 5097 5094 5091 5087 5081 5076 5070 5065 5061 5058 5057 5056 5055 5053 5050 5047 5047 5046 5043 5042 5042 5042 5043
5193 5186 5179 5170 5162 5156 5150 5145 5142 5137 5132 5128 5124 5120 5117 5116 5116 5115 5114 5114 5114 5116 5117 5117 5117 5115 5113 5112 5111 5110 5108 5106 5104 5103 5101 5100 5098 5097 5094 5092 5090 5087 5083 5079 5076 5071 5066 5061 5057 5053 5050 5049 5048 5047 5045 5042 5040 5039 5037 5036 5036 5036 5035
5183 5176 5169 5161 5153 5147 5142 5137 5133 5130 5125 5121 5118 5114 5111 5109 5109 5108 5107 5108 5109 5110 5111 5111 5110 5108 5106 5105 5104 5103 5101 5100 5098 5095 5093 5092 5091 5088 5086 5085 5082 5079 5075 5072 5068 5065 5061 5057 5053 5049 5046 5044 5042 5041 5038 5036 5035 5033 5032 5031 5030 5030 5029
5172 5166 5160 5153 5145 5139 5134 5129 5125 5122 5119 5115 5111 5108 5105 5103 5102 5101 5100 5101 5103 5103 5104 5104 5103 5102 5100 5099 5098 5096 5094 5093 5092 5089 5086 5085 5083 5080 5078 5077 5074 5071 5068 5065 5061 5058 5055 5051 5048 5044 5042 5039 5037 5035 5032 5030 5029 5028 5027 5026 5025 5024 5024
5162 5156 5151 5145 5138 5132 5126 5122 5118 5115 5112 5108 5105 5103 5100 5097 5095 5094 5094 5094 5095 5096 5097 5097 5097 5096 5095 5093 5091 5090 5088 5087 5085 5082 5080 5078 5076 5073 5071 5069 5066 5064 5061 5058 5054 5051 5048 5045 5042 5039 5037 5034 5032 5030 5027 5025 5023 5023 5022 5021 5020 5019 5019
5153 5147 5142 5137 5132 5126 5119 5115 5111 5107 5104 5102 5099 5097 5095 5092 5090 5088 5087 5087 5088 5089 5090 5090 5090 5089 5088 5087 5085 5084 5083 5082 5079 5077 5075 5072 5070 5067 5064 5062 5060 5057 5054 5051 5048 5044 5041 5038 5036 5034 5032 5029 5027 5025 5023 5020 5018 5017 5016 5015 5014 5013 5013
5144 5138 5133 5129 5125 5120 5114 5108 5105 5101 5097 5095 5093 5091 5088 5087 5085 5082 5081 5081 5081 5082 5082 5083 5083 5082 5081 5080 5078 5078 5077 5076 5074 5071 5069 5067 5064 5061 5058 5056 5053 5051 5048 5045 5042 5038 5035 5032 5029 5027 5026 5024 5022 5020 5018 5016 5014 5013 5012 5010 5008 5008 5007
5135 5130 5125 5121 5117 5113 5109 5103 5099 5095 5091 5088 5087 5084 5082 5081 5079 5077 5076 5075 5075 5075 5075 5075 5075 5074 5074 5073 5072 5072 5071 5070 5067 5065 5063 5060 5058 5055 5053 5050 5048 5045 5042 5039 5036 5033 5029 5026 5023 5021 5020 5018 5016 5015 5013 5011 5010 5008 5007 5005 5003 5002 5002
5127 5122 5118 5115 5111 5107 5103 5099 5093 5089 5086 5083 5080 5078 5076 5075 5073 5071 5070 5069 5069 5068 5068 5068 5067 5067 5067 5066 5066 5065 5064 5062 5060 5057 5055 5052 5050 5048 5046 5044 5042 5040 5037 5034 5031 5028 5024 5020 5017 5015 5013 5012 5010 5009 5007 5006 5005 5003 5002 5000 4998 4997 4998
5119 5114 5110 5108 5104 5100 5097 5094 5089 5084 5081 5077 5074 5072 5070 5068 5067 5065 5064 5064 5063 5062 5061 5061 5061 5060 5060 5060 5059 5058 5056 5054 5051 5049 5047 5044 5042 5040 5038 5036 5034 5032 5030 5028 5025 5023 5020 5016 5012 5010 5008 5006 5005 5004 5002 5000 4999 4998 4997 4995 4994 4993 4993
5111 5106 5103 5101 5097 5093 5091 5088 5084 5079 5075 5072 5069 5066 5065 5063 5061 5060 5059 5059 5056 5055 5055 5054 5054 5054 5053 5052 5051 5050 5048 5046 5045 5043 5040 5038 5036 5034 5031 5029 5027 5025 5023 5021 5019 5017 5014 5011 5008 5005 5003 5002 5000 4999 4997 4995 4994 4993 4992 4990 4989 4989 4988
5104 5099 5096 5095 5093 5089 5086 5083 5080 5076 5071 5067 5064 5061 5059 5058 5056 5055 5056 5056 5052 5050 5050 5049 5048 5048 5047 5045 5044 5043 5042 5040 5038 5037 5035 5032 5030 5028 5026 5023 5021 5019 5018 5016 5013 5011 5008 5005 5003 5000 4998 4996 4995 4993 4991 4990 4988 4987 4986 4986 4985 4984 4983
5096 5091 5088 5087 5086 5084 5081 5079 5076 5072 5068 5063 5059 5056 5054 5052 5050 5049 5051 5051 5048 5046 5045 5045 5044 5043 5042 5040 5039 5038 5036 5035 5033 5032 5030 5027 5025 5022 5020 5018 5015 5013 5012 5010 5008 5005 5003 5000 4997 4995 4992 4991 4990 4988 4986 4985 4983 4982 4981 4981 4980 4979 4978
5089 5085 5081 5079 5077 5075 5073 5072 5069 5066 5062 5058 5055 5052 5049 5047 5045 5043 5044 5045 5043 5041 5040 5040 5039 5038 5037 5036 5034 5033 5031 5030 5028 5026 5024 5022 5019 5017 5014 5012 5010 5008 5006 5004 5002 5000 4997 4994 4992 4990 4987 4986 4984 4983 4981 4980 4979 4977 4977 4976 4976 4975 4974
5083 5079 5076 5073 5070 5067 5066 5064 5062 5059 5056 5052 5049 5046 5044 5043 5041 5038 5037 5038 5037 5035 5035 5034 5033 5033 5032 5030 5029 5027 5026 5024 5022 5020 5018 5016 5013 5011 5008 5006 5004 5002 5000 4998 4996 4994 4991 4989 4986 4984 4982 4981 4979 4978 4977 4976 4974 4973 4972 4972 4972 4970 4969
5078 5073 5070 5068 5065 5062 5059 5057 5054 5051 5049 5046 5043 5041 5039 5038 5037 5033 5032 5032 5031 5030 5029 5028 5027 5026 5025 5024 5023 5021 5019 5018 5015 5013 5011 5009 5007 5004 5002 5000 4998 4996 4994 4992 4990 4988 4986 4983 4981 4979 4977 4976 4974 4973 4972 4971 4970 4969 4968 4968 4967 4966 4965
5076 5070 5065 5062 5059 5057 5055 5052 5048 5045 5042 5039 5037 5035 5034 5033 5032 5029 5027 5026 5025 5024 5024 5023 5021 5020 5019 5018 5016 5015 5013 5011 5009 5006 5004 5002 5000 4998 4995 4993 4991 4989 4988 4986 4984 4982 4980 4978 4976 4973 4972 4971 4969 4968 4967 4967 4966 4965 4965 4964 4963 4962 4961
5073 5067 5062 5058 5054 5052 5050 5047 5044 5041 5037 5034 5032 5030 5029 5028 5027 5025 5023 5021 5020 5018 5018 5017 5015 5014 5012 5011 5009 5007 5006 5004 5001 4999 4997 4995 4993 4991 4989 4986 4984 4983 4981 4979 4978 4976 4974 4972 4970 4968 4967 4966 4965 4963 4963 4962 4962 4961 4961 4960 4959 4958 4957
Wind_Speed
81 82 83 84 84 84 85 85 85 85 86 87 87 86 84 81 76 72 67 62 60 59 57 54 52 50 49 48 47 46 46 46 47 48 48 50 51 52 54 55 56 56 52 48 51 56 59 62 65 67 69 72 75 79 83 86 89 92 94 95 97 98 98
81 83 84 84 84 85 85 85 85 86 86 87 87 85 82 78 74 70 65 60 58 56 54 51 49 47 46 45 43 42 42 42 43 44 45 46 48 49 50 52 53 53 51 46 46 50 55 57 59 61 63 65 67 71 75 79 83 87 90 93 95 97 99
82 83 84 84 85 85 85 86 86 86 87 87 86 83 80 76 71 67 62 58 56 54 52 49 46 45 44 42 40 38 38 38 39 40 41 42 44 45 46 49 50 50 49 46 44 47 52 55 55 57 60 61 62 66 69 72 75 80 84 87 90 94 97
83 84 84 84 85 85 86 86 86 87 87 86 85 81 78 73 69 65 60 56 54 52 49 47 44 43 42 40 38 36 36 36 37 38 40 41 43 45 46 49 51 51 51 49 46 47 52 56 56 56 60 62 63 64 68 70 71 74 77 81 84 88 91
83 84 84 84 85 86 86 87 87 87 87 86 84 80 75 71 67 63 59 55 52 50 47 45 43 41 40 39 37 36 36 37 39 40 42 43 45 47 49 51 53 54 54 52 50 49 53 56 58 58 60 63 65 66 68 70 72 74 76 79 81 83 85
83 84 84 85 86 87 87 87 87 88 87 85 82 78 73 68 64 61 57 53 50 48 46 44 42 40 40 38 37 37 38 39 41 42 44 45 47 49 52 53 54 55 56 55 54 54 55 58 60 60 60 63 67 68 70 71 73 75 76 79 81 82 83
83 84 84 85 86 87 87 88 88 88 86 84 80 76 71 66 62 59 55 52 49 47 45 43 41 40 39 39 39 39 40 41 43 44 45 47 49 52 53 54 55 56 57 57 57 57 59 61 63 63 63 65 69 71 72 74 76 77 77 79 81 81 82
83 84 85 86 87 87 88 88 88 87 85 82 78 74 69 64 61 56 53 50 48 46 44 42 41 40 40 40 41 41 42 43 44 45 47 48 51 53 54 54 55 57 58 59 59 60 61 64 65 65 65 67 70 73 75 77 79 79 78 79 81 81 81
84 84 85 86 87 87 88 88 88 86 84 80 76 72 67 62 59 55 51 49 47 44 43 41 40 40 40 41 42 43 43 44 45 47 48 50 52 53 54 55 56 57 58 59 60 60 62 65 66 66 67 68 71 74 76 76 78 79 79 80 80 79 79
84 85 86 87 87 88 88 88 87 85 82 78 74 70 65 60 57 53 50 48 46 43 41 40 40 40 41 42 42 43 44 45 47 48 49 50 52 54 55 55 56 57 58 59 60 60 63 66 67 67 68 68 69 72 74 74 75 76 77 78 78 76 77
85 86 87 87 88 88 88 88 86 83 79 75 72 68 64 59 55 51 48 46 45 42 40 40 40 40 42 42 42 44 45 46 48 49 50 51 53 54 54 55 55 56 57 59 60 60 63 66 67 66 65 65 65 67 69 71 72 72 72 73 75 74 73
85 87 87 88 88 89 88 87 83 80 76 72 69 66 64 60 54 49 45 44 43 41 40 39 39 40 41 41 43 44 46 47 49 50 51 52 54 54 54 55 56 56 57 58 59 60 61 63 63 60 58 58 60 63 65 66 67 67 67 69 71 72 71
86 87 88 89 89 89 88 85 81 77 73 69 66 64 62 59 53 48 44 42 41 40 39 39 39 40 40 41 43 44 46 47 49 50 52 53 53 53 53 54 56 56 57 59 60 60 59 58 58 56 54 54 57 59 60 62 62 62 64 65 66 67 67
87 88 89 89 89 89 86 82 78 74 70 66 63 61 60 57 52 47 44 42 41 40 39 39 39 39 40 41 43 44 46 48 49 51 52 52 51 52 52 53 54 55 57 59 61 61 58 54 54 54 51 51 53 54 54 55 56 57 59 60 60 60 62
88 88 89 90 89 88 84 79 74 71 67 64 61 59 57 54 50 46 43 41 41 40 39 38 38 39 40 41 42 44 46 48 50 51 50 49 49 50 51 52 52 53 55 58 60 60 56 51 50 51 50 48 49 49 50 51 52 52 53 54 54 54 55
88 89 89 89 88 85 80 75 71 68 64 61 59 57 55 51 47 45 43 41 41 40 39 38 39 39 40 41 42 44 47 49 50 49 48 47 48 49 50 50 50 52 54 56 57 56 52 48 49 49 49 47 46 46 47 48 48 47 49 50 50 50 50
88 89 89 88 86 82 77 71 67 64 61 58 56 54 52 49 46 44 42 41 40 40 39 39 39 39 40 41 43 45 47 49 49 48 47 46 47 48 48 47 49 51 53 54 56 53 49 48 49 49 48 46 45 45 46 46 44 44 46 49 49 48 47
89 89 89 86 83 78 73 67 63 61 58 55 53 52 50 48 45 43 41 40 40 40 39 39 38 39 41 42 43 45 46 48 49 48 46 46 46 46 45 46 47 49 49 51 53 52 47 46 48 48 47 45 44 44 45 45 43 42 45 47 47 46 45
89 89 87 83 78 73 69 64 59 57 55 52 50 49 49 47 44 42 41 40 39 39 39 38 38 39 41 42 43 44 46 47 48 47 46 46 46 45 44 45 46 46 47 48 50 48 43 42 45 47 46 45 43 43 44 44 43 42 43 43 42 42 42
89 88 84 78 73 69 65 61 56 53 51 48 47 47 47 46 43 42 41 39 38 38 37 37 38 39 42 43 43 44 45 46 47 46 46 46 45 45 45 44 45 45 47 47 48 45 40 38 41 44 45 45 44 43 42 43 42 42 41 40 38 37 37
89 85 79 73 69 64 61 58 54 50 47 46 45 45 46 45 43 42 41 38 37 36 36 36 37 39 41 43 43 44 45 45 45 45 46 45 45 45 45 43 44 45 46 47 47 45 39 36 37 41 43 44 44 43 43 42 42 41 40 39 36 34 33
87 82 75 68 64 61 57 55 51 47 44 44 44 44 44 44 43 42 40 38 36 35 35 36 37 39 41 42 42 43 44 44 43 44 46 45 45 45 44 43 44 45 46 46 46 45 41 36 36 38 40 42 42 42 43 43 42 40 39 37 36 34 31
84 78 70 64 60 57 54 52 49 46 43 42 43 43 43 44 43 41 39 37 35 35 35 36 37 38 39 41 42 43 43 42 42 43 45 45 44 44 44 44 44 45 46 46 46 46 43 38 36 37 38 40 41 41 42 42 42 40 38 36 35 33 30
79 73 66 60 56 53 51 49 46 44 43 42 42 42 42 42 42 41 38 36 35 35 35 35 36 37 39 40 42 42 41 40 41 43 44 43 43 43 44 44 44 44 45 45 45 46 45 41 37 36 37 38 39 40 40 41 41 40 38 36 35 33 29
75 69 63 58 53 50 48 46 44 42 42 42 42 42 42 41 41 40 38 35 34 35 35 35 36 37 39 40 41 41 40 40 41 43 42 42 42 42 42 43 43 43 44 44 44 45 45 43 40 37 36 37 38 39 39 39 39 38 37 36 34 32 30
71 65 60 55 51 47 44 43 42 41 42 42 42 42 42 41 40 39 37 35 34 34 35 36 36 38 39 40 41 40 39 40 41 42 42 41 41 40 41 42 42 43 43 43 43 44 44 44 42 38 37 37 37 37 38 38 38 37 37 35 34 32 31
67 62 58 53 48 45 42 40 40 40 41 42 42 42 42 41 39 38 36 33 33 34 35 36 37 38 39 40 40 39 39 40 41 42 42 41 41 41 41 41 41 41 41 41 42 42 43 43 42 40 38 37 38 37 38 38 37 36 36 35 34 33 33
64 60 56 51 46 43 40 38 39 40 40 41 42 42 42 41 40 38 36 33 33 33 34 36 37 38 39 40 40 39 40 41 42 42 42 43 43 43 42 42 42 42 42 42 42 42 42 42 41 39 38 38 38 38 38 38 37 36 36 35 34 34 34
62 58 54 49 45 42 39 37 38 39 40 41 42 42 41 40 40 39 36 35 35 35 35 36 37 38 39 40 40 40 40 41 42 43 43 43 44 44 44 44 43 43 43 43 43 43 42 41 40 38 37 37 37 37 38 38 37 36 35 35 33 33 34
60 56 52 46 41 39 38 36 36 37 38 40 41 41 40 39 38 37 33 32 35 37 37 37 38 39 40 41 41 41 42 42 43 43 43 44 44 44 45 44 44 43 43 43 43 43 42 42 40 38 37 36 36 36 37 37 37 36 35 33 33 33 33
57 55 52 46 41 38 36 34 34 34 36 38 39 40 39 38 37 35 31 29 33 36 36 37 38 39 40 41 41 42 42 42 43 43 43 43 44 44 44 44 44 43 43 43 43 42 42 41 40 37 36 36 35 36 36 37 37 36 34 32 32 32 32
55 53 51 47 44 41 38 36 34 34 35 36 37 37 37 35 35 35 31 28 30 34 35 35 37 37 38 40 40 41 42 42 43 43 43 43 43 43 44 44 43 43 43 43 43 42 42 41 40 37 35 35 35 35 36 36 36 35 34 32 31 30 29
53 52 49 47 45 43 41 39 37 36 35 35 35 35 34 32 32 33 32 29 30 32 33 35 36 36 38 39 39 40 41 42 42 42 42 42 43 43 43 43 43 43 43 43 42 42 41 41 40 37 34 33 34 35 35 35 34 34 33 31 30 28 26
50 50 49 46 45 44 42 41 39 38 37 36 35 34 32 30 29 31 32 30 30 32 33 34 35 36 37 38 38 39 40 41 42 42 42 42 43 43 43 43 43 42 42 42 42 41 41 41 40 37 33 32 33 34 34 33 33 32 31 30 27 25 24
46 47 47 46 45 43 42 40 40 39 38 37 35 34 31 29 28 30 31 31 31 32 32 33 34 36 37 38 38 39 40 41 42 42 42 42 43 43 43 44 43 43 43 42 42 41 41 41 40 37 33 31 32 33 33 32 31 30 29 27 25 23 22
42 43 43 44 44 42 40 39 38 38 37 36 35 34 32 30 29 29 30 31 32 33 33 33 35 36 37 38 39 40 40 41 42 43 43 43 43 43 44 43 43 43 43 43 42 42 41 40 39 37 33 30 31 32 32 31 29 28 27 25 23 20 20
Wind_Direction
311 311 312 312 312 312 312 312 311 311 311 312 312 312 311 310 307 304 301 296 292 293 293 292 292 292 290 288 285 283 280 278 277 275 275 274 273 273 273 272 272 271 267 264 263 262 260 259 258 257 256 255 254 254 253 252 252 251 250 249 248 248 247
311 312 312 313 313 312 312 312 311 311 312 312 313 312 311 309 305 303 300 294 291 292 292 292 292 291 289 287 285 283 280 278 277 276 275 274 274 274 274 275 275 275 273 270 267 266 265 264 262 261 260 258 257 256 255 254 253 252 251 250 249 248 247
312 312 313 313 313 313 312 312 312 312 312 313 313 312 310 307 304 302 298 292 290 291 291 291 292 290 288 287 285 284 281 278 277 276 275 274 274 275 275 275 276 277 277 275 271 269 269 268 267 266 265 263 261 260 258 257 255 254 253 252 251 249 248
312 313 313 313 313 313 312 312 312 312 313 313 313 311 309 306 303 300 296 289 288 290 290 290 290 289 287 286 285 283 281 278 277 275 275 275 275 275 276 276 277 278 278 278 276 273 272 271 270 269 268 267 265 263 262 260 258 257 256 254 252 251 249
313 313 313 313 313 313 313 313 313 313 313 313 312 311 308 304 301 299 293 287 286 288 288 288 288 287 286 285 284 282 279 277 277 276 276 276 276 277 277 277 278 279 279 280 279 277 275 274 273 271 270 270 268 266 264 263 261 259 257 255 254 252 250
313 313 313 313 313 313 313 313 313 313 313 313 312 310 307 303 300 297 291 285 284 286 286 286 286 285 285 284 282 280 278 277 277 276 277 278 278 278 278 279 280 280 281 282 282 280 279 278 277 276 274 274 272 270 267 265 263 260 259 257 255 253 251
313 313 313 313 313 313 313 313 313 313 313 312 311 308 305 302 299 296 289 282 281 283 283 284 285 284 283 282 280 278 277 277 278 278 279 279 279 279 280 281 282 283 283 283 283 283 282 281 280 279 278 276 275 273 270 267 264 261 259 258 256 254 252
313 313 312 312 313 313 313 313 314 313 312 311 310 307 304 301 298 294 287 279 278 281 282 282 282 282 281 280 278 278 278 278 279 279 280 280 280 281 282 283 284 284 285 285 286 285 284 283 282 281 280 279 276 274 271 269 266 262 259 258 256 255 253
313 313 313 313 313 313 314 314 314 313 312 310 308 306 303 300 297 293 285 277 275 279 280 281 281 280 279 278 278 279 279 280 280 280 281 281 282 283 284 285 285 286 287 287 287 286 285 284 284 284 283 280 277 274 271 268 266 263 260 258 256 255 254
313 312 313 313 313 314 314 314 314 312 311 309 307 305 302 299 296 292 284 275 274 276 278 278 278 278 277 277 279 280 280 281 281 281 282 282 283 284 285 287 288 289 289 289 289 288 288 288 288 287 285 281 277 274 272 269 266 264 262 260 257 254 254
313 313 313 313 314 314 314 314 313 312 310 308 306 303 301 298 295 291 282 274 271 274 276 276 276 276 277 279 280 281 281 282 282 283 284 285 285 286 288 290 291 291 291 290 290 291 291 291 291 289 286 282 278 275 273 270 267 265 263 261 259 255 253
313 313 314 314 314 314 315 314 313 311 309 307 305 302 301 299 296 291 282 272 268 270 272 273 273 275 278 280 281 282 282 283 284 285 285 286 287 289 291 292 293 292 292 291 291 292 293 293 291 288 284 280 277 275 273 272 270 268 265 262 260 257 254
314 314 314 314 315 315 315 314 312 310 308 306 304 302 300 299 296 292 283 273 266 266 269 269 271 273 276 279 280 281 282 283 283 284 284 286 288 291 292 293 294 295 295 294 294 295 296 294 289 284 281 277 275 274 273 273 272 271 268 264 261 258 255
314 314 315 315 315 315 315 313 311 309 307 305 303 301 299 298 296 291 284 274 266 265 267 268 270 272 276 278 280 281 282 282 282 282 284 287 290 291 293 294 295 296 297 297 298 300 300 295 288 285 283 279 276 275 274 273 272 271 270 268 265 262 257
314 315 315 315 315 315 315 313 310 307 306 304 302 300 298 297 295 290 284 275 267 265 267 268 270 273 276 279 281 281 281 281 281 283 285 288 290 292 293 295 297 297 297 299 301 303 303 297 290 287 284 280 278 277 276 274 273 273 273 272 269 266 261
315 315 315 315 315 315 314 312 309 306 305 303 301 299 298 296 293 289 284 276 268 265 267 269 271 274 277 280 281 281 281 281 282 285 287 290 291 292 294 297 298 298 299 301 303 305 302 295 289 287 285 282 281 280 279 278 278 278 276 274 271 268 265
315 315 316 316 315 314 313 311 308 306 304 303 300 299 297 295 292 289 284 277 268 265 266 269 272 275 278 280 280 280 281 283 284 286 289 290 291 293 295 298 298 299 301 304 306 305 300 293 289 288 287 286 286 284 283 282 281 280 278 275 273 271 268
316 316 316 316 315 314 312 310 307 305 303 302 300 297 295 293 292 289 284 277 268 265 266 269 272 276 278 280 280 281 283 285 286 288 290 291 291 293 296 298 298 300 303 305 306 306 301 294 290 289 288 288 288 287 286 285 284 282 279 277 276 274 272
316 316 317 316 315 313 311 309 307 305 303 301 298 296 294 293 292 289 285 277 269 265 266 269 273 276 278 280 280 282 284 286 288 290 291 292 293 295 297 297 299 302 303 304 306 307 302 294 290 290 289 288 288 288 287 287 286 284 282 281 280 279 276
317 317 317 316 314 312 310 309 307 305 302 300 297 294 293 293 292 289 285 277 270 265 266 269 272 275 278 280 282 283 285 286 289 291 292 292 294 296 297 298 301 303 303 305 307 308 302 293 289 288 288 288 289 288 287 287 286 286 286 286 286 284 280
317 317 317 315 313 312 310 308 307 305 302 299 296 294 293 293 292 289 285 278 271 266 266 268 270 273 277 280 282 284 285 288 291 292 293 294 295 296 298 301 302 303 304 307 309 309 304 293 287 286 287 287 288 289 288 287 287 286 287 288 289 287 283
318 318 317 315 313 311 310 308 307 304 301 298 296 294 294 293 292 290 286 280 272 267 265 266 268 272 276 280 282 283 285 289 291 292 293 295 296 297 299 302 303 304 306 307 309 309 306 296 287 285 286 286 287 288 288 288 288 287 287 287 288 286 285
318 318 317 315 313 312 310 308 307 304 301 298 296 295 295 294 293 292 287 281 272 266 264 265 268 272 275 278 280 282 285 289 292 292 293 295 296 297 299 301 303 304 306 307 309 310 307 300 290 286 285 286 286 286 287 288 288 288 288 287 287 286 285
318 318 317 315 314 312 310 308 306 304 301 298 297 296 296 295 295 294 290 282 273 267 264 264 266 270 273 276 278 281 285 289 290 290 292 294 296 297 299 301 303 304 305 307 308 309 308 303 294 288 286 285 285 286 286 287 287 288 288 288 288 287 286
318 318 317 316 315 313 310 308 306 304 301 299 299 298 297 296 296 294 291 285 276 270 266 265 266 269 272 275 278 282 286 288 288 289 292 294 296 297 299 300 302 303 304 306 308 308 308 305 297 290 287 285 285 285 285 286 286 286 287 288 288 288 289
318 317 317 316 316 314 311 309 306 304 302 301 300 299 298 298 297 294 291 286 279 272 268 267 268 270 274 277 280 283 285 286 288 290 292 294 295 297 298 299 301 302 304 305 307 308 308 305 299 292 288 286 285 284 284 284 285 286 286 288 290 291 292
318 317 317 317 316 314 312 310 306 304 303 302 301 299 298 298 297 295 292 287 280 275 272 271 271 273 276 279 282 284 286 287 290 293 295 296 297 298 299 299 300 302 303 304 305 307 307 305 300 294 289 287 286 285 284 285 286 286 287 288 290 291 291
318 317 317 317 317 314 313 311 307 305 304 303 301 300 300 300 299 297 295 291 285 278 273 271 272 275 278 281 284 286 288 291 294 296 298 300 300 301 301 301 302 303 304 305 306 306 306 304 300 293 288 285 285 284 284 285 287 287 287 287 288 289 288
317 316 317 318 318 315 314 312 309 307 305 303 302 301 300 300 298 296 295 293 289 283 278 276 276 278 281 284 287 289 291 293 295 298 299 300 300 301 301 302 302 303 304 305 305 305 305 305 301 293 285 282 282 282 283 285 286 287 287 288 288 288 286
317 316 316 317 316 314 313 311 309 307 304 302 301 299 298 297 293 291 288 285 281 280 279 279 280 281 284 286 288 290 291 293 294 296 297 298 299 299 300 300 301 301 302 303 304 304 304 305 302 294 286 282 281 281 282 284 286 287 287 288 288 287 283
317 316 316 317 317 314 312 311 308 305 302 300 299 298 297 296 293 290 286 278 274 273 274 275 276 278 280 283 285 287 288 290 292 293 295 296 297 298 298 299 300 300 301 302 302 302 303 304 302 295 287 282 281 280 281 283 285 286 287 287 286 284 279
316 316 316 317 317 316 314 313 311 307 304 301 299 298 297 296 294 291 287 280 275 273 273 273 273 275 277 279 281 283 285 287 290 292 293 295 296 297 298 298 299 299 300 301 301 302 302 303 302 297 287 280 279 279 280 282 283 285 286 287 285 280 276
316 315 316 316 316 315 316 315 313 310 307 304 302 299 297 296 294 291 288 283 279 276 275 274 275 275 276 278 280 282 284 287 289 291 293 295 296 297 297 297 297 297 298 299 300 301 301 301 302 298 287 278 276 277 278 280 282 284 285 285 282 278 276
315 314 315 315 315 315 316 317 315 313 310 308 304 302 299 298 294 290 288 285 282 279 278 278 278 278 279 280 282 283 285 288 290 292 294 295 296 296 297 297 297 297 298 298 299 300 300 300 301 298 288 277 274 275 276 278 280 282 283 282 280 278 278
313 313 313 313 313 315 316 316 315 314 312 310 307 305 303 301 296 292 289 288 285 283 282 281 281 281 282 283 285 286 288 290 291 293 294 296 296 297 296 297 297 297 298 298 299 299 299 299 300 297 288 276 272 274 275 277 279 280 280 280 279 279 280
314 313 312 312 313 315 316 315 314 313 312 310 308 307 305 303 299 295 293 291 289 287 286 285 284 284 285 286 287 289 290 292 293 294 295 296 296 296 296 296 296 296 297 297 298 298 297 297 298 296 287 275 270 272 273 275 278 279 279 279 279 279 280